Flag for U.S.A. Weather past 2 weeks in Chula Vista, California, U.S.A.

Now
52 °F

Sunny.


Feels Like: 47 °F
Forecast: 43 / 62 °F
Wind: 17 mph from Southeast

Location: Brown Field Municipal Airport

Current Time: Dec 26, 2014 at 8:41:54 AM

Latest Report: Dec 26, 2014 at 7:53 AM


Visibility: 10 mi

Pressure: 30.02 "Hg

Humidity: 24%

Dew point: 16 °F

Location of Chula VistaLocation

Historic Weather in Chula Vista — Graph

°F

Chula Vista temperature yesterday

Maximum temperature yesterday: 65 °F (at 1:53 PM)
Minimum temperature yesterday: 48 °F (at 10:53 PM)
Average temperature yesterday: 57 °F

Past Weeks' High & Low Weather Summary

 TemperatureHumidityPressure
High79 °F (Dec 23, 11:53 AM)97% (Dec 17, 7:53 AM)30.24 "Hg (Dec 17, 7:53 AM)
Low43 °F (Dec 14, 6:53 AM)14% (Dec 24, 11:53 AM)29.79 "Hg (Dec 25, 1:53 PM)
Average57 °F72%30.04 "Hg
* Reported Dec 11 7:01 AM — Dec 26 6:53 AM, Chula Vista, Weather by CustomWeather, © 2014

Note: Actual official high and low records may vary slightly from our data, if they occured in-between our weather recording intervals... More about our weather records

Advertising

Chula Vista weather history for previous 24 hours

 ConditionsComfort  
Time TempWeatherWind HumidityBarometerVisibility
6:53 AM
Dec 26
49 °FSunny.12 mph27%30.00 "Hg10 mi
5:53 AM50 °FClear.15 mph27%29.97 "Hg10 mi
4:53 AM49 °FClear.12 mph31%29.93 "Hg10 mi
3:53 AM50 °FClear.20 mph29%29.92 "Hg10 mi
2:53 AM49 °FClear.13 mph44%29.92 "Hg10 mi
1:53 AM47 °FClear.9 mph66%29.92 "Hg10 mi
12:53 AM44 °FClear.8 mph76%29.91 "Hg10 mi
11:53 PM
Dec 25
48 °FClear.8 mph71%29.91 "Hg10 mi
10:53 PM48 °FClear.5 mph71%29.91 "Hg10 mi
9:53 PM49 °FClear.6 mph69%29.90 "Hg10 mi
8:53 PM50 °FClear.5 mph68%29.89 "Hg10 mi
7:53 PM52 °FClear.No wind64%29.88 "Hg10 mi
6:53 PM55 °FClear.No wind59%29.86 "Hg10 mi
5:53 PM55 °FClear.6 mph55%29.84 "Hg10 mi
4:53 PM58 °FClear.7 mph44%29.82 "Hg10 mi
3:53 PM60 °FSunny.9 mph47%29.80 "Hg10 mi
2:53 PM64 °FSunny.5 mph30%29.80 "Hg10 mi
1:53 PM65 °FScattered clouds.7 mph51%29.79 "Hg10 mi
12:53 PM61 °FScattered clouds.7 mph70%29.80 "Hg10 mi
11:53 AM62 °FScattered clouds.8 mph60%29.81 "Hg10 mi
10:53 AM60 °FMore clouds than sun.6 mph65%29.85 "Hg10 mi
9:53 AM60 °FScattered clouds.3 mph69%29.87 "Hg10 mi
8:53 AM59 °FBroken clouds.7 mph69%29.86 "Hg10 mi
Weather by CustomWeather, © 2014

See weather overviewHow to use our weather pages